Regional Weather Roundup
Issued by NWS Charleston, WV

Home | Current Version | Previous Version | Graphics & Text | Print | Product List | Glossary On
Versions: 1 2 3 4 5 6 7 8 9 10 11 12 13 14 15 16 17 18 19 20 21 22 23 24 25 26 27 28 29 30 31 32 33 34 35 36 37 38 39 40 41 42 43 44 45 46 47 48 49 50
000
ASUS41 KRLX 271710
RWRRLX
West Virginia Regional Weather Roundup
National Weather Service Charleston WV
1200 PM EST THU NOV 27 2014

Note: "fair" indicates few or no clouds below 12,000 feet with no
significant weather and/or obstructions to visibility.

WVZ003-271800-
Northern Panhandle of West Virginia

CITY           SKY/WX    TMP DP  RH WIND       PRES   REMARKS
WHEELING       CLOUDY    33  27  78 W9        30.09S
$$

WVZ009-271800-
Northwest West Virginia

CITY           SKY/WX    TMP DP  RH WIND       PRES   REMARKS
PARKERSBURG    LGT RAIN  34  27  75 W9G18     30.19R
$$

WVZ006-271800-
Western West Virginia

CITY           SKY/WX    TMP DP  RH WIND       PRES   REMARKS
HUNTINGTON     CLOUDY    34  23  64 NW9       30.21S
$$

WVZ015-271800-
West Central West Virginia

CITY           SKY/WX    TMP DP  RH WIND       PRES   REMARKS
CHARLESTON     CLOUDY    34  26  72 NW8       30.18S
$$

WVZ022-031-271800-
North Central West Virginia

CITY           SKY/WX    TMP DP  RH WIND       PRES   REMARKS
CLARKSBURG     CLOUDY    35  29  78 W10       30.09S
MORGANTOWN     CLOUDY    36  24  62 W8        30.08S
$$

WVZ025-035-042-045-271800-
Southern West Virginia

CITY           SKY/WX    TMP DP  RH WIND       PRES   REMARKS
BECKLEY        CLOUDY    31  22  69 NW14      30.08S
LOGAN          MIX PCPN  32  25  74 NW7G13    30.15S
BLUEFIELD      CLOUDY    31  25  78 NW13G20   30.08R
LEWISBURG      CLOUDY    35  28  76 W7        30.06R
$$

WVZ047-271800-
Northern Mountains of West Virginia

CITY           SKY/WX    TMP DP  RH WIND       PRES   REMARKS
ELKINS         PTSUNNY   33  26  75 W8        30.05S
$$

WVZ052-271800-
Eastern Panhandle of West Virginia

CITY           SKY/WX    TMP DP  RH WIND       PRES   REMARKS
MARTINSBURG    PTSUNNY   41  27  57 NW6       30.04F
PETERSBURG     CLOUDY    34  33  96 CALM      30.06F FOG
$$



USA.gov is the U.S. government's official web portal to all federal, state and local government web resources and services.